#timestamp,LO_Frequency,Hit,StdDev 
1542218415.2,286047021.1,N
1542218435.0,286047023.6,N
1542218435.9,286047023.6,N
1542218485.8,286047024.2,E
1542218495.7,286047014.7,N
1542218515.5,286046998.2,P
1542218535.4,286047002.4,N
1542218555.2,286047001.5,N
1542218575.1,286047002.0,N
1542218576.0,286047002.0,N
1542218595.8,286047001.6,N
1542218615.6,286047000.1,N
1542218635.5,286047000.7,N
1542218655.3,286046995.1,N
1542218675.1,286046994.3,N
1542218695.9,286046993.1,N
1542218715.7,286046988.6,N
1542218735.6,286046990.3,N
1542218755.4,286046989.2,N
1542218775.2,286046989.8,N
1542218795.1,286046987.5,N
1542218796.0,286046987.5,N
1542218815.8,286046987.7,N
1542218835.7,286046988.1,N
1542218855.5,286046987.9,N
1542218875.3,286046987.7,N
1542218895.2,286046985.9,N
1542218915.0,286046988.3,N
1542218915.9,286046988.3,N
1542218935.7,286046987.5,N
1542218955.6,286046986.9,N
1542218975.4,286046989.3,N
1542218995.3,286046990.0,N
1542219015.1,286046989.2,N
1542219016.0,286046989.2,N
1542219035.8,286046990.0,N
1542219055.7,286046987.5,N
1542219075.5,286046987.1,N
1542219095.3,286046988.0,N
1542219115.2,286046986.2,Y
1542219135.0,286046994.7,P
1542219135.9,286046994.7,N
1542219155.8,286046990.5,P
1542219175.6,286046990.4,Y
1542219195.4,286046996.6,P
1542219215.3,286046999.6,N
1542219235.1,286046996.7,N
1542219255.8,286046997.2,N
1542219275.7,286046999.4,N
1542219295.5,286046997.3,N
1542219315.4,286046994.2,N
1542219335.2,286046991.9,Y
1542219355.0,286046995.4,P
1542219355.9,286046995.4,P
1542219375.8,286046997.4,P
1542219395.6,286046995.6,Y
1542219415.5,286046998.3,P
1542219435.3,286046999.6,N
1542219455.1,286046999.0,N
1542219475.9,286046999.6,N
1542219495.7,286046999.1,N
1542219515.5,286046999.6,N
1542219535.4,286046997.4,N
1542219555.2,286046995.8,Y
1542219575.0,286046994.9,P
1542219576.0,286046994.9,N
1542219595.8,286046997.2,N
1542219615.6,286046993.4,Y
1542219635.5,286046993.4,P
1542219655.3,286046994.8,P
1542219675.1,286046993.2,P
1542219695.9,286046993.0,Y
1542219715.7,286046997.5,P
1542219735.6,286046997.9,N
1542219755.4,286046997.3,N
1542219775.2,286046996.5,N
1542219795.1,286046997.1,N
1542219796.0,286046997.1,N
1542219815.8,286046995.3,Y
1542219835.7,286046998.4,P
1542219855.5,286046998.6,N
1542219875.3,286047001.2,N
1542219895.2,286046998.2,N
1542219915.0,286047001.0,N
1542219915.9,286047001.0,N
1542219935.7,286046998.3,N
1542219955.6,286046998.1,N
1542219975.4,286046999.2,N
1542219995.3,286046997.0,N
1542220015.1,286046998.6,N
1542220016.0,286046998.6,N
1542220035.8,286046999.6,N
1542220055.7,286046996.7,N
1542220075.5,286046999.2,N
1542220095.4,286046995.0,Y
1542220115.2,286047001.0,P
1542220135.0,286047000.3,N
1542220135.9,286047000.3,N
1542220155.8,286047011.9,Y
1542220175.6,286046999.3,P
1542220195.4,286046996.5,P
1542220215.3,286046999.2,N
1542220235.1,286046996.9,N
1542220255.9,286046999.2,N
1542220275.7,286046996.9,N
1542220295.5,286046996.8,N
1542220315.4,286046996.5,N
1542220335.2,286046997.9,N
1542220355.0,286046996.4,N
1542220355.9,286046996.4,N
1542220375.8,286046992.3,Y
1542220395.6,286046994.5,P
1542220415.5,286046994.3,P
1542220435.3,286046992.0,P
1542220455.1,286046993.6,Y
1542220475.9,286046999.5,P
1542220495.7,286046999.9,N
1542220515.5,286047001.8,N
1542220535.4,286047003.9,N
1542220555.2,286047003.8,N
1542220575.1,286047003.5,N
1542220576.0,286047003.5,N
1542220595.8,286047009.2,Y
1542220615.6,286047010.8,P
1542220635.5,286047009.4,N
1542220655.3,286047013.6,P
1542220675.2,286047016.3,Y
1542220695.9,286047008.7,P
1542220715.7,286047004.6,P
1542220735.6,286047007.4,P
1542220755.4,286047011.9,Y
1542220775.2,286047006.9,P
1542220795.1,286047008.6,P
1542220796.0,286047008.6,P
1542220815.8,286047009.2,Y
1542220835.7,286046999.9,P
1542220855.5,286047000.7,N
1542220875.3,286046999.2,N
1542220895.2,286046993.3,N
1542220915.0,286046995.2,N
1542220915.9,286046995.2,N
1542220935.8,286046993.7,N
1542220955.6,286046993.3,N
1542220975.4,286046994.8,N
1542220995.3,286046992.4,N
1542221015.1,286046992.3,N
1542221035.8,286046990.5,N
1542221055.7,286046990.7,N
1542221075.5,286046988.8,N
1542221095.4,286046989.2,N
1542221115.2,286046991.1,N
1542221135.0,286046992.5,N
1542221135.9,286046992.5,N
1542221155.8,286046993.0,N
1542221175.6,286046993.0,N
1542221195.4,286046992.6,N
1542221215.3,286046992.7,N
1542221235.1,286046994.0,N
1542221255.9,286046994.3,N
1542221275.7,286046992.2,N
1542221295.5,286046993.5,N
1542221315.4,286046993.3,N
1542221335.2,286046995.8,N
1542221355.0,286046995.6,N
1542221355.9,286046995.6,N
1542221375.8,286046997.1,N
1542221395.6,286046999.4,N
1542221415.5,286046997.2,N
1542221435.3,286046996.8,N
1542221455.1,286046995.0,N
1542221475.9,286046993.9,N
1542221495.7,286046993.4,N
1542221515.5,286046996.1,N
1542221535.4,286046993.6,N
1542221555.2,286046992.6,Y
1542221575.1,286046999.1,P
1542221576.0,286046999.1,N
1542221595.8,286046997.4,N
1542221615.6,286046998.0,N
1542221635.5,286046997.6,N
1542221655.3,286046997.3,N
1542221675.1,286046996.9,N
1542221695.9,286046996.8,N
1542221715.7,286046995.4,Y
1542221735.6,286046999.0,P
1542221755.4,286046996.5,P
1542221775.2,286046995.3,P
1542221795.1,286046996.0,N
1542221796.0,286046996.0,Y
1542221815.8,286046996.8,P
1542221835.7,286046997.0,P
1542221855.5,286046995.1,P
1542221875.3,286046996.0,Y
1542221895.2,286046999.4,P
1542221915.9,286046998.8,N
1542221935.7,286046998.7,N
1542221955.6,286046997.2,N
1542221975.4,286046994.6,Y
1542221995.3,286046996.2,P
